| time (UTC) | temp F | wind direction | speed MPH | gust MPH | rain 1hr in | rain 24hr in | rain mn in | humidity % | barometer mb |
| 20260510192523 | 91 | 212 | 5.0 | 8.0 | 0.00 | 0.00 | 0.00 | 8 | 1019.1 |
| 20260510191622 | 90 | 202 | 1.0 | 4.0 | 0.00 | 0.00 | 0.00 | 7 | 1019.1 |
| 20260510190622 | 90 | 236 | 3.0 | 8.0 | 0.00 | 0.00 | 0.00 | 6 | 1019.2 |
| 20260510185622 | 90 | 203 | 2.0 | 6.0 | 0.00 | 0.00 | 0.00 | 7 | 1019.4 |
| 20260510182723 | 89 | 204 | 5.0 | 10.0 | 0.00 | 0.00 | 0.00 | 8 | 1019.9 |
| 20260510181737 | 89 | 106 | 2.0 | 4.0 | 0.00 | 0.00 | 0.00 | 8 | 1020.1 |
| 20260510180822 | 88 | 186 | 3.0 | 7.0 | 0.00 | 0.00 | 0.00 | 7 | 1020.1 |
| 20260510175839 | 87 | 101 | 4.0 | 7.0 | 0.00 | 0.00 | 0.00 | 9 | 1020.2 |
| 20260510173823 | 88 | 89 | 0.0 | 2.0 | 0.00 | 0.00 | 0.00 | 10 | 1020.4 |
| 20260510171838 | 85 | 202 | 0.0 | 3.0 | 0.00 | 0.00 | 0.00 | 11 | 1020.4 |
| 20260510170922 | 84 | 239 | 1.0 | 3.0 | 0.00 | 0.00 | 0.00 | 12 | 1020.6 |
| 20260510165925 | 83 | 179 | 2.0 | 4.0 | 0.00 | 0.00 | 0.00 | 12 | 1020.6 |
| 20260510165022 | 83 | 128 | 0.0 | 2.0 | 0.00 | 0.00 | 0.00 | 13 | 1020.7 |
| 20260510164024 | 82 | 182 | 2.0 | 4.0 | 0.00 | 0.00 | 0.00 | 12 | 1020.7 |
| 20260510163039 | 81 | 161 | 3.0 | 5.0 | 0.00 | 0.00 | 0.00 | 12 | 1020.4 |
| 20260510162039 | 80 | 202 | 1.0 | 2.0 | 0.00 | 0.00 | 0.00 | 13 | 1020.6 |
| 20260510161121 | 80 | 149 | 3.0 | 6.0 | 0.00 | 0.00 | 0.00 | 13 | 1020.7 |
| 20260510160137 | 79 | 157 | 1.0 | 2.0 | 0.00 | 0.00 | 0.00 | 15 | 1020.7 |
| 20260510155222 | 79 | 159 | 4.0 | 5.0 | 0.00 | 0.00 | 0.00 | 14 | 1020.7 |
| 20260510153222 | 77 | 240 | 0.0 | 2.0 | 0.00 | 0.00 | 0.00 | 16 | 1020.7 |
| 20260510152237 | 77 | 237 | 0.0 | 2.0 | 0.00 | 0.00 | 0.00 | 17 | 1020.8 |
| 20260510152122 | 77 | 247 | 0.0 | 1.0 | 0.00 | 0.00 | 0.00 | 17 | 1020.7 |
| 20260510150222 | 75 | 80 | 0.0 | 2.0 | 0.00 | 0.00 | 0.00 | 21 | 1020.8 |
| 20260510145222 | 74 | 337 | 0.0 | 0.0 | 0.00 | 0.00 | 0.00 | 22 | 1020.9 |
| 20260510143221 | 71 | 337 | 0.0 | 0.0 | 0.00 | 0.00 | 0.00 | 25 | 1020.7 |
| 20260510142239 | 68 | 315 | 0.0 | 0.0 | 0.00 | 0.00 | 0.00 | 29 | 1020.8 |
| 20260510141221 | 67 | 315 | 0.0 | 0.0 | 0.00 | 0.00 | 0.00 | 28 | 1020.7 |
| 20260510135222 | 64 | 45 | 0.0 | 0.0 | 0.00 | 0.00 | 0.00 | 30 | 1020.7 |
| 20260510135137 | 64 | 45 | 0.0 | 0.0 | 0.00 | 0.00 | 0.00 | 30 | 1020.6 |
| 20260510134137 | 63 | 45 | 0.0 | 1.0 | 0.00 | 0.00 | 0.00 | 32 | 1020.6 |
| 20260510133121 | 61 | 45 | 0.0 | 0.0 | 0.00 | 0.00 | 0.00 | 32 | 1020.4 |
| 20260510132221 | 61 | 45 | 0.0 | 0.0 | 0.00 | 0.00 | 0.00 | 31 | 1020.2 |
| 20260510131238 | 60 | 45 | 0.0 | 0.0 | 0.00 | 0.00 | 0.00 | 30 | 1020.1 |
| 20260510130241 | 59 | 338 | 1.0 | 2.0 | 0.00 | 0.00 | 0.00 | 31 | 1019.9 |
| 20260510125223 | 58 | 360 | 0.0 | 1.0 | 0.00 | 0.00 | 0.00 | 31 | 1019.9 |
| 20260510124238 | 58 | 180 | 0.0 | 0.0 | 0.00 | 0.00 | 0.00 | 32 | 1019.6 |
| 20260510123240 | 59 | 315 | 1.0 | 2.0 | 0.00 | 0.00 | 0.00 | 30 | 1019.6 |
| 20260510122337 | 59 | 90 | 2.0 | 3.0 | 0.00 | 0.00 | 0.00 | 29 | 1019.6 |
| 20260510120421 | 59 | 300 | 2.0 | 3.0 | 0.00 | 0.00 | 0.00 | 33 | 1019.1 |
| 20260510115437 | 57 | 315 | 1.0 | 2.0 | 0.00 | 0.00 | 0.00 | 38 | 1018.9 |
| 20260510115322 | 57 | 315 | 0.0 | 1.0 | 0.00 | 0.00 | 0.00 | 38 | 1018.9 |
| 20260510114338 | 59 | 22 | 0.0 | 0.0 | 0.00 | 0.00 | 0.00 | 31 | 1018.8 |
| 20260510112422 | 59 | 337 | 0.0 | 0.0 | 0.00 | 0.00 | 0.00 | 35 | 1018.5 |
| 20260510110439 | 59 | 337 | 2.0 | 2.0 | 0.00 | 0.00 | 0.00 | 37 | 1018.4 |
| 20260510105521 | 59 | 22 | 0.0 | 0.0 | 0.00 | 0.00 | 0.00 | 34 | 1018.3 |
| 20260510104539 | 59 | 22 | 2.0 | 2.0 | 0.00 | 0.00 | 0.00 | 35 | 1018.2 |
| 20260510103537 | 60 | 22 | 0.0 | 0.0 | 0.00 | 0.00 | 0.00 | 34 | 1018.0 |
| 20260510102620 | 61 | 22 | 0.0 | 0.0 | 0.00 | 0.00 | 0.00 | 31 | 1017.9 |
| 20260510101621 | 61 | 22 | 0.0 | 0.0 | 0.00 | 0.00 | 0.00 | 31 | 1017.8 |
| 20260510100622 | 61 | 22 | 0.0 | 0.0 | 0.00 | 0.00 | 0.00 | 31 | 1017.6 |
| 20260510095637 | 62 | 45 | 0.0 | 0.0 | 0.00 | 0.00 | 0.00 | 30 | 1017.6 |
| 20260510095522 | 62 | 45 | 0.0 | 0.0 | 0.00 | 0.00 | 0.00 | 30 | 1017.6 |
| 20260510094521 | 61 | 67 | 0.0 | 0.0 | 0.00 | 0.00 | 0.00 | 31 | 1017.4 |
| 20260510093520 | 62 | 360 | 0.0 | 0.0 | 0.00 | 0.00 | 0.00 | 32 | 1017.2 |
| 20260510092521 | 64 | 360 | 0.0 | 0.0 | 0.00 | 0.00 | 0.00 | 28 | 1017.1 |
| 20260510091523 | 64 | 67 | 2.0 | 3.0 | 0.00 | 0.00 | 0.00 | 26 | 1017.0 |
| 20260510091439 | 64 | 47 | 2.0 | 3.0 | 0.00 | 0.00 | 0.00 | 27 | 1017.0 |
| 20260510090522 | 64 | 45 | 0.0 | 0.0 | 0.00 | 0.00 | 0.00 | 27 | 1016.9 |
| 20260510084522 | 65 | 67 | 0.0 | 2.0 | 0.00 | 0.00 | 0.00 | 26 | 1016.8 |
| 20260510083522 | 65 | 67 | 0.0 | 1.0 | 0.00 | 0.00 | 0.00 | 27 | 1016.8 |
| 20260510081522 | 65 | 292 | 0.0 | 0.0 | 0.00 | 0.00 | 0.00 | 28 | 1016.7 |
| 20260510075539 | 67 | 292 | 0.0 | 0.0 | 0.00 | 0.00 | 0.00 | 26 | 1016.7 |
| 20260510074522 | 67 | 45 | 0.0 | 2.0 | 0.00 | 0.00 | 0.00 | 25 | 1016.6 |
| 20260510073521 | 68 | 337 | 0.0 | 1.0 | 0.00 | 0.00 | 0.00 | 24 | 1016.5 |
| 20260510072538 | 70 | 22 | 0.0 | 0.0 | 0.00 | 0.00 | 0.00 | 21 | 1016.3 |
| 20260510071622 | 70 | 112 | 0.0 | 0.0 | 0.00 | 0.00 | 0.00 | 21 | 1016.3 |
| 20260510070622 | 70 | 337 | 0.0 | 0.0 | 0.00 | 0.00 | 0.00 | 22 | 1016.3 |
| 20260510064737 | 70 | 337 | 0.0 | 0.0 | 0.00 | 0.00 | 0.00 | 26 | 1016.0 |
| 20260510063721 | 70 | 337 | 0.0 | 1.0 | 0.00 | 0.00 | 0.00 | 22 | 1015.8 |
| 20260510062736 | 69 | 360 | 3.0 | 4.0 | 0.00 | 0.00 | 0.00 | 27 | 1015.7 |
| 20260510061820 | 71 | 337 | 0.0 | 1.0 | 0.00 | 0.00 | 0.00 | 25 | 1015.6 |
| 20260510060820 | 71 | 360 | 0.0 | 0.0 | 0.00 | 0.00 | 0.00 | 25 | 1015.3 |
| 20260510055830 | 72 | 90 | 0.0 | 0.0 | 0.00 | 0.00 | 0.00 | 21 | 1015.3 |
| 20260510054848 | 74 | 90 | 0.0 | 0.0 | 0.00 | 0.00 | 0.00 | 21 | 1015.1 |
| 20260510053946 | 75 | 180 | 0.0 | 0.0 | 0.00 | 0.00 | 0.00 | 19 | 1015.1 |
| 20260510053033 | 76 | 93 | 0.0 | 0.0 | 0.00 | 0.00 | 0.00 | 19 | 1014.9 |
| 20260510051130 | 76 | 90 | 2.0 | 3.0 | 0.00 | 0.00 | 0.00 | 19 | 1014.8 |
| 20260510050133 | 76 | 202 | 0.0 | 1.0 | 0.00 | 0.00 | 0.00 | 19 | 1014.5 |
| 20260510044131 | 78 | 202 | 0.0 | 0.0 | 0.00 | 0.00 | 0.00 | 18 | 1014.4 |
| 20260510044031 | 78 | 202 | 0.0 | 1.0 | 0.00 | 0.00 | 0.00 | 19 | 1014.5 |
| 20260510043130 | 79 | 337 | 1.0 | 1.0 | 0.00 | 0.00 | 0.00 | 18 | 1014.3 |
| 20260510042148 | 79 | 225 | 0.0 | 2.0 | 0.00 | 0.00 | 0.00 | 18 | 1014.3 |
| 20260510041230 | 79 | 112 | 0.0 | 1.0 | 0.00 | 0.00 | 0.00 | 17 | 1014.1 |
| 20260510040230 | 80 | 292 | 0.0 | 1.0 | 0.00 | 0.00 | 0.00 | 16 | 1013.7 |
| 20260510035232 | 80 | 292 | 2.0 | 3.0 | 0.00 | 0.00 | 0.00 | 18 | 1013.7 |
| 20260510034331 | 81 | 247 | 0.0 | 0.0 | 0.00 | 0.00 | 0.00 | 15 | 1013.5 |
| 20260510033345 | 81 | 247 | 0.0 | 2.0 | 0.00 | 0.00 | 0.00 | 17 | 1013.3 |
| 20260510032431 | 83 | 180 | 2.0 | 3.0 | 0.00 | 0.00 | 0.00 | 16 | 1013.1 |
| 20260510031530 | 83 | 157 | 1.0 | 2.0 | 0.00 | 0.00 | 0.00 | 15 | 1012.9 |
| 20260510025530 | 85 | 315 | 3.0 | 4.0 | 0.00 | 0.00 | 0.00 | 14 | 1012.4 |
| 20260510024532 | 86 | 315 | 0.0 | 0.0 | 0.00 | 0.00 | 0.00 | 14 | 1012.4 |
| 20260510023629 | 86 | 337 | 1.0 | 2.0 | 0.00 | 0.00 | 0.00 | 13 | 1012.2 |
| 20260510022633 | 88 | 344 | 3.0 | 4.0 | 0.00 | 0.00 | 0.00 | 12 | 1012.0 |
| 20260510020630 | 90 | 336 | 3.0 | 6.0 | 0.00 | 0.00 | 0.00 | 12 | 1012.0 |
| 20260510020530 | 90 | 334 | 3.0 | 5.0 | 0.00 | 0.00 | 0.00 | 12 | 1012.0 |
| 20260510015532 | 91 | 347 | 3.0 | 6.0 | 0.00 | 0.00 | 0.00 | 11 | 1011.9 |
| 20260510014547 | 91 | 347 | 5.0 | 8.0 | 0.00 | 0.00 | 0.00 | 11 | 1011.8 |
| 20260510013531 | 90 | 319 | 3.0 | 7.0 | 0.00 | 0.00 | 0.00 | 12 | 1011.7 |
| 20260510012548 | 91 | 17 | 2.0 | 4.0 | 0.00 | 0.00 | 0.00 | 12 | 1011.7 |
| 20260510012429 | 91 | 360 | 2.0 | 4.0 | 0.00 | 0.00 | 0.00 | 11 | 1011.8 |
| 20260510010446 | 92 | 356 | 4.0 | 9.0 | 0.00 | 0.00 | 0.00 | 11 | 1011.7 |
| 20260510004546 | 93 | 359 | 6.0 | 9.0 | 0.00 | 0.00 | 0.00 | 10 | 1011.4 |
| 20260510003530 | 95 | 349 | 4.0 | 7.0 | 0.00 | 0.00 | 0.00 | 10 | 1011.6 |
| 20260510002531 | 94 | 353 | 1.0 | 3.0 | 0.00 | 0.00 | 0.00 | 10 | 1011.6 |
| 20260510001630 | 93 | 22 | 5.0 | 9.0 | 0.00 | 0.00 | 0.00 | 11 | 1011.7 |
| 20260510000649 | 93 | 26 | 4.0 | 7.0 | 0.00 | 0.00 | 0.00 | 11 | 1011.6 |
| 20260509231930 | 96 | 4 | 3.0 | 7.0 | 0.00 | 0.00 | 0.00 | 10 | 1011.7 |
| 20260509231847 | 96 | 11 | 7.0 | 12.0 | 0.00 | 0.00 | 0.00 | 9 | 1011.7 |
| 20260509230846 | 94 | 359 | 6.0 | 11.0 | 0.00 | 0.00 | 0.00 | 9 | 1011.7 |
| 20260509225830 | 94 | 284 | 4.0 | 6.0 | 0.00 | 0.00 | 0.00 | 10 | 1011.9 |
| 20260509224831 | 94 | 207 | 4.0 | 7.0 | 0.00 | 0.00 | 0.00 | 9 | 1012.1 |
| 20260509223846 | 95 | 315 | 5.0 | 7.0 | 0.00 | 0.00 | 0.00 | 10 | 1012.0 |
| 20260509222931 | 95 | 354 | 5.0 | 11.0 | 0.00 | 0.00 | 0.00 | 9 | 1012.2 |
| 20260509220948 | 94 | 337 | 2.0 | 5.0 | 0.00 | 0.00 | 0.00 | 10 | 1012.5 |
| 20260509220032 | 93 | 346 | 6.0 | 9.0 | 0.00 | 0.00 | 0.00 | 10 | 1012.8 |
| 20260509214047 | 93 | 288 | 6.0 | 8.0 | 0.00 | 0.00 | 0.00 | 11 | 1013.0 |
| 20260509213131 | 93 | 332 | 8.0 | 13.0 | 0.00 | 0.00 | 0.00 | 11 | 1013.3 |
| 20260509212129 | 93 | 314 | 7.0 | 11.0 | 0.00 | 0.00 | 0.00 | 11 | 1013.3 |
| 20260509211131 | 93 | 301 | 6.0 | 10.0 | 0.00 | 0.00 | 0.00 | 11 | 1013.3 |
| 20260509210146 | 92 | 265 | 8.0 | 14.0 | 0.00 | 0.00 | 0.00 | 11 | 1013.6 |
| 20260509205229 | 92 | 299 | 9.0 | 13.0 | 0.00 | 0.00 | 0.00 | 11 | 1013.7 |
| 20260509203247 | 92 | 303 | 3.0 | 6.0 | 0.00 | 0.00 | 0.00 | 11 | 1013.8 |
| 20260509202230 | 92 | 293 | 11.0 | 18.0 | 0.00 | 0.00 | 0.00 | 11 | 1013.8 |
| 20260509195348 | 94 | 291 | 9.0 | 13.0 | 0.00 | 0.00 | 0.00 | 11 | 1014.3 |
| 20260509195246 | 94 | 291 | 4.0 | 10.0 | 0.00 | 0.00 | 0.00 | 11 | 1014.2 |
| 20260509194329 | 94 | 157 | 0.0 | 2.0 | 0.00 | 0.00 | 0.00 | 11 | 1014.3 |
| 20260509193329 | 94 | 209 | 4.0 | 6.0 | 0.00 | 0.00 | 0.00 | 12 | 1014.5 |